Location: Bosdarros
(43.2167°N, 0.3667°W)
Time: 15:53:14
(UTC+00:00)

Cosmos 1745 Rocket - Pass Details

Date: 22 April 2021
Orbit: 952 x 998 km, 83.0° (Epoch: 12 May)

Event Time Altitude Azimuth Distance (km) Brightness Sun altitude
Rises 21:44:39 0° 357° (N) 3,709 7.9 -26.3°
Reaches altitude 10° 21:47:18 10° 3° (N) 2,751 7.0 -26.6°
Maximum altitude 21:53:22 48° 77° (ENE) 1,263 4.4 -27.2°
Enters shadow 21:53:25 48° 78° (ENE) 1,263 4.3 -27.2°
